Probability
0 0 0 0 0 0 0 0 0 0 0 0 0 0 0 0 0 0 0 0 0 0 0 0 0 0 0 0 0 0 0 0 0 0 0 0 0 0 0 0 0 0 0
0 0 0 0 0 0 0 0 0 0 0 0 0 0 0 0 0 0 0 0 0 0 0 0 0 0 0 0 0 0 0 0 0 0 0 0 0 0 0 0 0 0 0
0 0 0 0 0 0 0 0 0 0 0 0 0 0 0 0 0 0 0 0 0 0 0 0 0 0 0 0 0 0 0 0 0 0 0 0 0 0 0 0 0 0 0
0 0 0 0 0 0 0 0 0 0 0 0 0 0 0 0 0 0 0 0 0 0 0 0 0 0 0 0 0 0 0 0 0 0 0 0 0 0 0 0 0 0 0
0 0 0 0 0 0 0 0 0 0 0 0 0 0 0 0 0 0 0 0 0 0 0 0 0 0 0 0 0 0 0 0 0 0 0 0 0 0 0 0 0 0 0
0 0 0 0 0 0 0 0 0 0 0 0 0 0 0 0 0 0 0 0 0 0 0 0 0 0 0 0 0 0 0 0 0 0 0 0 0 0 0 0 0 0 0
0 0 0 0 0 0 0 0 0 0 0 0 0 0 0 0 0 0 0 0 0 0 0 0 0 0 0 0 0 0 0 0 0 0 0 0 0 0 0 0 0 0 0
0 0 0 0 0 0 0 0 0 0 0 0 0 0 0 0 0 0 0 0 0 0 0 0 0 0 0 0 0 0 0 0 0 0 0 0 0 0 0 0 0 0 0
0 0 0 0 0 0 0 0 0 0 0 0 0 0 0 0 0 0 0 0 0 0 0 0 0 0 0 0 0 0 0 0 0 0 0 0 0 0 0 0 0 0 0
0 0 0 0 0 0 0 0 0 0 0 0 0 0 0 0 0 0 0 0 0 0 0 0 0 0 0 0 0 0 0 0 0 0 0 0 0 0 0 0 0 0 0
0 0 0 0 0 0 0 0 0 0 0 0 0 0 0 0 0 0 0 0 0 0 0 0 0 0 0 0 0 0 0 0 0 0 0 0 0 0 0 0 0 0 0
0 0 0 0 0 0 0 0 0 0 0 0 0 0 0 0 0 0 0 0 0 0 0 0 0 0 0 0 0 0 0 0 0 0 0 0 0 0 0 0 0 0 0
0 0 0 0 0 0 0 0 0 0 0 0 0 0 0 0 0 0 0 0 0 0 0 0 0 0 0 0 0 0 0 0 0 0 0 0 0 0 0 0 0 0 0
0 0 0 0 0 0 0 0 0 0 0 0 0 0 0 0 0 0 0 0 0 0 0 0 0 0 0 0 0 0 0 0 0 0 0 0 0 0 0 0 0 0 0
0 0 0 0 0 0 0 0 0 0 0 0 0 0 0 0 0 0 0 0 0 0 0 0 0 0 0 0 0 0 0 0 0 0 0 0 0 0 0 0 0 0 0
0 0 0 0 0 0 0 0 0 0 0 0 0 0 0 0 0 0 0 0 0 0 0 0 0 0 0 0 0 0 0 0 0 0 0 0 0 0 0 0 0 0 0
0 0 0 0 0 0 0 0 0 0 0 0 0 0 0 0 0 0 0 0 0 0 0 0 0 0 0 0 0 0 0 0 0 0 0 0 0 0 0 0 0 0 0
0 0 0 0 0 0 0 0 0 0 0 0 0 0 0 0 0 0 0 0 0 0 0 0 0 0 0 0 0 0 0 0 0 0 0 0 0 0 0 0 0 0 0
0 0 0 0 0 0 0 0 0 0 0 0 0 0 0 0 0 0 0 0 0 0 0 0 0 0 0 0 0 0 0 0 0 0 0 0 0 0 0 0 0 0 0
0 0 0 0 0 0 0 0 0 0 0 0 0 0 0 0 0 0 0 0 0 0 0 0 0 0 0 0 0 0 0 0 0 0 0 0 0 0 0 0 0 0 0
0 0 0 0 0 0 0 0 0 0 0 0 0 0 0 0 0 0 0 0 0 0 0 0 0 0 0 0 0 0 0 0 0 0 0 0 0 0 0 0 0 0 0
0 0 0 0 0 0 0 0 0 0 0 0 0 0 0 0 0 0 0 0 0 0 0 0 0 0 0 0 0 0 0 0 0 0 0 0 0 0 0 0 0 0 0
0 0 0 0 0 0 0 0 0 0 0 0 0 0 0 0 0 0 0 0 0 0 0 0 0 0 0 0 0 0 0 0 0 0 0 0 0 0 0 0 0 0 0
0 0 0 0 0 0 0 0 0 0 0 0 0 0 0 0 0 0 0 0 0 0 0 0 0 0 0 0 0 0 0 0 0 0 0 0 0 0 0 0 0 0 0
0 0 0 0 0 0 0 0 0 0 0 0 0 0 0 0 0 0 0 0 0 0 0 0 0 0 0 0 0 0 0 0 0 0 0 0 0 0 0 0 0 0 0
0 0 0 0 0 0 0 0 0 0 0 0 0 0 0 0 0 0 0 0 0 0 0 0 0 0 0 0 0 0 0 0 0 0 0 0 0 0 0 0 0 0 0
Wind_Speed
6 6 6 5 3 1 2 4 6 7 7 7 8 7 4 3 2 1 1 3 3 3 3 2 5 7 4 2 3 4 2 2 2 1 2 4 5 4 3 3 3 3 5
7 6 5 4 4 3 2 3 5 6 7 6 7 9 8 6 5 3 4 3 3 3 2 4 7 7 5 4 5 4 3 2 3 3 4 5 4 3 3 3 2 3 4
7 7 5 6 5 5 4 3 4 5 6 6 6 7 9 9 8 6 6 3 2 2 4 6 5 7 6 5 6 5 3 4 5 6 3 1 1 1 2 2 2 1 2
7 7 7 6 6 6 5 4 4 4 4 4 6 6 7 6 6 5 5 3 2 3 5 7 8 7 6 6 6 5 5 7 5 5 3 2 2 2 1 2 2 2 2
7 7 7 7 6 5 5 4 3 3 2 3 3 4 4 3 1 3 4 4 5 7 9 9 9 10 10 7 7 5 6 6 4 4 2 2 3 3 3 3 2 2 2
6 7 6 7 7 7 6 5 4 3 1 2 3 2 2 1 5 4 3 5 8 10 8 7 8 9 7 10 12 12 9 6 3 2 2 2 2 2 2 2 2 2 2
7 8 8 8 7 7 7 5 5 4 4 6 5 3 1 2 1 8 9 6 7 7 7 7 7 6 9 10 11 12 10 8 4 2 2 2 1 3 3 3 2 0 1
9 9 8 9 9 8 7 7 5 5 5 5 4 4 3 5 9 12 11 8 8 7 6 6 7 5 7 8 7 8 7 7 5 2 2 2 2 1 1 1 1 1 2
8 8 8 11 11 9 8 8 5 5 5 5 5 5 5 4 8 11 10 7 6 5 4 5 7 7 9 11 9 8 8 8 8 11 11 8 7 6 4 4 4 3 2
8 10 9 10 13 11 9 8 5 5 6 6 6 5 6 4 6 11 9 6 5 4 5 5 8 9 11 11 9 7 7 5 6 8 9 9 8 7 7 4 1 2 1
9 9 9 12 12 11 8 7 7 7 7 6 6 5 5 5 5 8 11 6 6 5 4 3 3 9 9 9 8 5 3 1 4 6 6 5 5 5 5 5 4 3 2
10 10 9 10 10 10 9 7 8 9 8 7 6 4 3 4 5 6 12 9 8 7 5 4 3 7 8 6 6 7 7 4 4 5 4 4 4 4 4 4 5 4 3
8 10 9 8 9 9 10 10 7 9 8 7 6 6 4 4 3 3 9 14 12 8 6 8 7 6 6 4 6 7 6 4 5 4 3 2 2 2 3 4 5 5 5
9 10 8 8 8 9 9 10 9 9 9 8 7 7 6 5 4 4 5 8 10 7 7 6 4 3 3 2 3 4 3 4 4 3 2 1 2 3 4 3 3 5 4
7 11 7 6 9 9 10 10 10 11 12 11 9 9 9 8 8 10 10 9 8 9 8 3 2 1 2 2 2 2 2 4 4 2 3 3 4 3 3 3 3 3 3
5 8 6 5 8 8 8 6 3 8 14 15 15 12 10 10 14 15 16 16 15 13 6 3 3 3 3 4 4 3 2 4 4 3 3 4 3 2 2 2 3 3 3
5 7 5 6 7 7 8 10 8 3 5 10 15 16 15 13 18 19 17 15 13 10 4 4 4 4 4 4 5 5 4 4 5 3 3 4 3 2 2 2 3 3 3
6 7 6 7 8 8 7 8 10 11 10 6 5 7 12 18 19 18 16 11 7 4 4 4 5 4 3 4 6 5 4 5 4 4 3 3 3 2 2 1 1 2 2
6 6 6 6 8 7 6 5 8 10 11 8 5 4 5 7 10 14 15 9 8 5 5 4 5 4 4 5 6 6 6 6 6 5 4 3 3 3 2 1 2 3 3
6 9 9 7 8 6 5 7 8 9 10 10 9 8 8 8 8 7 5 5 6 6 6 6 5 5 4 5 6 6 5 5 5 5 4 4 3 3 3 3 3 3 2
6 6 9 7 7 5 5 7 9 10 10 9 8 9 16 14 11 12 9 7 7 7 6 6 5 5 5 5 5 6 6 5 5 5 4 4 3 3 3 3 3 3 3
6 5 7 6 5 4 6 7 9 10 10 10 8 10 15 11 10 9 9 8 7 6 6 6 5 5 6 7 8 8 7 6 5 5 5 5 4 4 4 3 3 3 2
8 7 7 6 5 7 9 11 11 11 10 10 10 10 9 8 8 9 9 8 6 6 5 5 5 4 4 5 6 7 7 7 7 8 7 6 6 5 4 4 4 3 3
8 7 6 7 6 8 10 12 12 13 12 10 10 10 11 10 8 9 8 7 6 6 6 6 6 6 7 6 5 5 6 6 6 8 11 9 8 7 5 4 4 5 4
5 5 6 7 7 8 12 12 12 12 12 11 10 10 11 10 9 8 8 7 7 7 6 6 6 7 10 10 9 8 8 9 9 9 10 9 10 9 7 5 5 4 4
4 4 7 6 5 8 11 11 11 11 11 11 10 10 11 10 10 9 8 7 7 7 7 6 8 10 11 10 11 10 10 11 11 12 11 9 9 8 7 6 7 5 5
Wind_Direction
196 193 180 183 184 231 298 316 319 321 334 353 2 345 342 336 294 187 166 100 111 84 54 102 120 109 108 139 107 112 129 127 124 40 30 18 25 355 354 19 48 34 6
203 210 208 203 204 221 264 292 300 317 336 356 10 14 8 21 22 50 70 88 115 142 145 114 112 110 106 99 91 96 105 117 122 101 51 27 21 343 348 34 44 35 11
201 208 220 214 215 225 235 254 280 308 331 354 12 16 27 24 26 26 70 71 101 137 116 107 103 99 93 86 81 86 93 90 98 100 81 16 359 338 356 4 49 18 2
203 207 214 212 210 220 234 245 276 301 319 7 18 25 47 28 16 38 86 117 144 101 86 78 69 72 83 86 81 71 82 85 85 92 90 30 8 342 17 4 354 2 354
206 208 210 207 208 215 228 232 244 273 325 38 58 77 65 55 276 190 185 163 110 81 63 59 58 66 73 78 83 76 81 86 83 81 72 38 10 2 355 339 346 326 316
222 218 200 203 209 211 218 216 207 220 210 173 185 128 108 158 273 224 157 103 89 82 75 63 53 54 71 78 78 70 70 81 82 82 76 55 8 337 330 332 349 7 344
241 222 195 197 207 210 208 203 200 198 178 189 188 176 185 304 119 107 99 93 94 88 81 73 63 49 67 72 68 61 55 58 69 128 112 72 16 327 327 351 12 337 247
229 218 194 189 202 205 200 199 198 173 173 167 171 176 130 28 74 87 88 86 84 82 88 98 95 73 76 84 71 54 37 29 18 26 81 142 164 269 254 240 260 286 270
292 241 206 188 193 201 200 191 188 164 164 171 173 171 113 60 85 93 92 89 88 87 89 86 87 80 79 81 77 63 44 20 20 45 56 70 78 56 37 39 16 33 347
322 307 267 203 186 199 198 176 172 168 168 169 167 174 151 132 108 112 115 116 107 90 67 61 77 86 80 80 84 77 65 5 10 31 29 30 36 38 40 59 81 97 33
316 317 300 244 190 193 185 168 164 164 158 166 169 171 171 161 137 135 143 137 138 127 115 96 80 94 93 90 88 77 83 38 45 54 40 27 16 19 14 21 32 88 83
317 316 297 265 221 184 176 169 166 157 160 169 168 169 186 181 163 158 165 160 154 143 149 150 143 125 119 105 89 90 88 82 69 61 49 30 16 2 351 15 31 39 50
301 300 299 287 237 202 174 165 165 163 166 172 172 173 181 183 174 185 176 161 148 144 153 159 165 150 117 83 66 80 90 86 81 72 60 16 327 311 354 17 18 26 32
296 292 294 293 267 219 187 167 167 174 176 176 172 175 172 172 172 159 144 132 131 137 142 144 155 135 113 103 81 70 98 116 117 120 113 23 6 25 35 23 25 17 28
272 276 267 281 273 231 201 182 180 185 183 178 178 171 167 180 189 171 159 154 153 149 132 120 121 133 132 118 106 111 118 115 108 87 82 67 49 40 22 12 38 44 49
259 268 257 265 276 252 206 179 169 191 191 183 170 169 180 174 165 170 166 159 154 142 129 139 161 193 184 176 165 159 155 131 124 124 100 82 70 65 43 21 43 68 62
256 275 272 257 267 271 222 188 170 142 187 184 177 175 170 166 169 176 174 165 158 149 139 156 168 192 208 186 167 165 162 148 143 130 106 98 96 88 71 38 27 46 49
245 260 259 260 247 249 238 200 174 169 171 165 165 173 176 170 173 172 159 138 142 155 155 167 182 199 187 170 166 168 154 148 144 141 131 121 120 119 96 55 35 60 70
224 236 242 256 258 243 246 203 179 174 175 162 134 116 122 139 156 158 155 153 163 169 172 181 189 194 176 180 172 164 159 163 158 154 160 162 161 140 121 110 76 78 93
222 230 238 251 269 242 224 196 184 173 171 167 165 160 138 129 144 164 177 156 165 171 178 186 195 198 177 176 167 160 164 170 156 158 169 179 178 152 142 133 107 103 102
231 233 240 251 264 227 211 193 182 173 168 165 166 164 164 165 172 179 181 175 179 179 180 183 190 200 184 173 173 171 176 182 177 169 176 175 169 162 154 131 121 133 134
242 243 246 244 252 243 210 204 179 170 165 162 163 165 167 167 168 175 182 188 186 181 176 173 189 201 184 178 179 178 183 190 187 177 178 174 175 174 166 141 135 144 140
239 228 240 243 239 252 210 197 176 167 164 164 159 150 164 174 174 181 185 184 179 184 181 181 192 206 200 193 181 178 182 194 195 177 170 169 174 178 174 161 155 161 181
232 223 237 246 242 230 192 176 168 165 164 163 160 159 173 181 179 183 182 177 184 195 187 186 193 202 205 209 198 194 192 187 177 175 169 169 178 181 180 172 168 176 185
213 225 242 247 225 197 172 168 164 160 163 166 167 167 178 181 181 184 186 186 188 191 195 192 195 203 205 207 204 210 206 188 176 173 172 174 178 180 182 179 171 170 175
189 229 259 244 207 169 160 162 162 158 160 168 172 170 176 182 187 191 186 184 185 190 195 194 199 203 202 204 204 200 191 184 182 183 179 180 181 182 182 181 176 171 168